GFSNGP_prec_sndepth_000.txt.gz
Snowfall_Accumulation
0.0 0.0 0.0 0.0 0.0 0.0 0.0 0.0 3.5 0.2 0.0 0.0 0.0 0.0 0.0 0.0 0.0 0.0 0.0 0.0 0.0 0.0 0.0 0.0 0.0 0.0 0.0 0.0 0.0 0.0 0.0 0.0 0.0 0.0 0.0 0.0 0.0 0.0 0.0 0.0 0.0 0.0 0.0 0.0
0.6 0.0 0.0 0.1 0.0 0.0 0.0 0.0 0.0 0.0 0.0 0.0 0.0 0.0 0.0 0.0 0.0 0.0 0.0 0.0 0.0 0.0 0.0 0.0 0.0 0.0 0.0 0.0 0.0 0.0 0.0 0.0 0.0 0.0 0.0 0.0 0.0 0.0 0.0 0.0 0.0 0.0 0.0 0.0
4.1 0.0 0.7 8.3 0.6 0.0 0.0 0.0 0.0 0.5 0.0 0.0 0.0 0.0 0.0 0.0 0.0 0.0 0.0 0.0 0.0 0.0 0.0 0.0 0.0 0.0 0.0 0.0 0.0 0.0 0.0 0.0 0.0 0.0 0.0 0.0 0.0 0.0 0.0 0.0 0.0 0.0 0.0 0.0
8.4 5.1 12.1 0.2 0.0 0.0 0.1 0.0 0.0 0.0 0.0 0.0 0.0 0.0 0.0 0.0 0.0 0.0 0.0 0.0 0.0 0.0 0.0 0.0 0.0 0.0 0.0 0.0 0.0 0.0 0.0 0.0 0.0 0.0 0.0 0.0 0.0 0.0 0.0 0.0 0.0 0.0 0.0 0.0
17.6 4.3 0.3 0.0 0.1 0.1 0.3 0.2 0.0 0.0 0.0 0.0 0.0 0.0 0.0 0.0 0.0 0.0 0.0 0.0 0.0 0.0 0.0 0.0 0.0 0.0 0.0 0.0 0.0 0.0 0.0 0.0 0.0 0.0 0.0 0.0 0.0 0.1 0.1 0.0 0.0 0.0 0.0 0.1
10.7 11.9 13.7 0.2 0.0 0.0 0.0 1.7 0.0 0.0 0.0 0.0 0.0 1.5 0.1 0.0 0.0 0.0 0.0 0.0 0.0 0.0 0.0 0.0 0.0 0.0 0.0 0.0 0.0 0.0 0.0 0.0 0.0 0.0 0.0 0.0 0.0 0.0 0.0 0.1 0.1 0.5 0.2 0.1
9.4 15.4 4.5 0.0 0.0 0.0 5.3 0.6 0.2 0.0 0.0 0.0 0.0 0.2 0.0 0.0 0.0 0.0 0.0 0.0 0.0 0.0 0.0 0.0 0.0 0.0 0.0 0.0 0.0 0.0 0.0 0.0 0.0 0.0 0.0 0.0 0.0 0.0 0.0 0.2 0.6 2.1 3.6 1.4
11.7 16.8 15.9 0.0 0.0 2.6 0.8 0.1 0.0 0.0 0.0 0.0 0.0 0.0 0.0 0.0 0.0 0.0 0.0 0.0 0.0 0.0 0.0 0.0 0.0 0.0 0.0 0.0 0.0 0.0 0.0 0.0 0.0 0.0 0.0 0.0 0.0 0.0 0.1 0.5 1.5 5.3 6.9 4.3
0.6 4.9 0.0 0.0 0.0 0.0 0.0 0.0 0.0 0.0 0.0 0.0 0.0 0.0 0.0 0.0 0.0 0.0 0.0 0.0 0.0 0.0 0.0 0.0 0.0 0.0 0.0 0.0 0.0 0.0 0.0 0.0 0.0 0.0 0.0 0.0 0.1 0.3 0.8 0.3 1.9 4.3 4.7 4.2
1.4 0.0 0.0 0.0 0.0 0.0 0.0 0.0 0.0 0.0 0.0 0.0 0.0 0.0 0.1 0.0 0.0 0.0 0.0 0.0 0.0 0.0 0.0 0.0 0.0 0.0 0.0 0.0 0.0 0.0 0.0 0.0 0.0 0.0 0.0 0.0 0.1 0.3 1.3 1.7 2.6 2.4 4.2 4.9
0.2 0.0 0.0 0.0 0.0 0.0 0.0 0.0 0.0 0.0 0.0 0.0 0.0 0.1 0.0 0.1 0.0 0.0 0.0 0.0 0.0 0.0 0.0 0.0 0.0 0.0 0.0 0.0 0.0 0.0 0.1 0.1 0.0 0.5 0.4 0.5 0.2 0.9 2.2 1.2 3.6 6.2 3.5 3.9
2.6 0.0 0.0 0.0 0.0 0.0 0.0 0.0 0.0 0.0 0.0 0.0 0.0 0.0 0.1 0.1 0.0 0.0 0.0 0.0 0.0 0.0 0.0 0.0 0.0 0.0 0.0 0.0 0.0 0.2 0.3 0.3 1.8 2.4 1.9 1.6 1.8 2.0 nan nan nan nan nan 8.2
0.0 0.0 0.0 0.0 0.0 0.0 0.0 0.0 0.0 0.0 0.0 0.0 0.0 0.0 0.0 0.1 0.0 nan 0.0 0.0 0.0 0.0 0.0 0.0 0.0 0.0 0.0 0.7 2.1 3.3 2.4 2.7 2.6 2.5 2.5 2.5 2.8 2.4 3.2 4.9 nan nan nan nan
0.0 0.0 0.0 0.0 0.0 0.0 0.0 0.0 0.0 0.0 0.0 0.0 0.0 0.0 0.0 0.0 0.0 0.0 0.0 0.0 0.0 0.0 0.0 0.0 0.1 0.2 0.2 0.5 2.6 4.2 3.9 1.4 3.7 3.1 3.0 3.4 4.5 4.3 4.1 5.5 8.4 7.3 nan nan
0.0 0.0 0.0 0.0 0.0 0.0 0.0 0.0 0.0 0.0 0.0 0.1 0.0 0.0 0.0 0.0 0.0 0.0 0.0 0.1 0.4 0.4 0.2 0.2 0.3 0.3 0.3 0.6 1.2 1.2 2.1 3.7 7.0 8.6 8.7 7.0 7.1 6.7 5.6 6.3 6.8 5.9 5.4 6.0
0.0 0.0 0.0 0.0 0.0 0.0 0.0 0.0 0.0 0.0 0.0 0.0 0.0 0.5 0.0 0.0 0.0 0.0 0.3 1.5 1.9 2.3 1.6 8.1 4.1 1.5 0.9 0.4 0.8 1.4 1.1 0.7 3.7 6.7 7.9 8.0 6.2 6.9 5.3 6.3 6.3 6.8 6.2 5.9
0.1 0.1 0.1 0.0 0.0 0.0 0.0 0.0 0.0 0.0 0.0 0.8 0.7 2.0 1.9 2.8 2.7 2.1 0.8 2.9 6.9 7.8 6.5 5.5 2.5 0.4 0.8 0.6 0.8 1.5 1.9 2.7 1.2 5.2 5.6 6.3 7.8 8.4 7.2 8.4 8.2 7.8 12.8 19.8
0.0 0.0 0.0 0.0 0.0 0.0 0.1 0.2 0.3 0.7 0.8 0.7 3.7 8.1 9.1 8.2 3.5 4.1 5.2 5.6 7.0 6.8 4.6 3.9 2.5 1.2 1.8 0.7 1.3 2.1 4.4 4.8 6.7 8.3 7.5 10.5 7.6 7.5 9.6 8.5 8.5 9.4 11.9 11.9
0.0 0.0 0.0 0.0 0.1 0.4 0.3 0.4 2.1 1.5 5.5 5.2 9.3 9.8 7.6 7.7 4.0 3.5 4.2 10.2 11.4 5.0 3.4 3.4 0.0 1.8 1.5 1.5 1.6 4.1 7.3 11.6 7.1 5.0 7.0 8.6 14.2 7.6 11.4 14.5 12.4 15.9 10.4 10.5
0.0 0.0 0.0 0.0 0.1 1.4 3.1 2.4 4.4 2.8 1.9 3.4 9.2 11.1 7.2 9.8 10.7 11.8 7.7 6.0 4.1 3.0 3.9 2.4 3.1 3.4 3.1 1.5 3.0 3.6 9.0 14.5 8.2 13.8 16.8 9.4 19.4 25.1 17.9 8.6 13.0 17.1 28.3 22.3
0.4 0.6 2.4 3.0 3.0 4.3 6.2 7.2 5.6 2.6 2.8 7.4 11.5 12.7 11.3 7.5 9.8 13.7 9.5 3.8 3.5 6.1 3.8 2.6 3.4 2.4 0.8 1.0 1.1 12.3 17.3 20.7 20.7 14.9 14.7 25.0 30.0 23.4 24.6 28.2 26.2 30.2 33.2 27.1
0.4 4.3 5.9 4.6 3.4 2.9 3.4 3.0 2.7 5.9 6.0 10.0 16.2 18.7 14.4 6.5 9.3 9.7 12.3 5.0 2.9 4.6 4.1 4.5 2.8 5.7 4.0 7.1 6.7 22.4 12.1 13.1 16.5 16.2 16.7 23.3 23.9 32.4 32.7 29.0 27.4 31.4 30.7 33.2
0.4 1.0 2.4 4.4 4.7 1.5 2.4 4.0 7.7 8.2 11.9 10.9 13.2 9.2 7.0 2.8 2.9 6.2 6.8 3.1 3.0 7.0 4.4 9.9 7.6 7.9 8.0 26.5 23.6 25.3 22.4 22.5 21.3 19.0 20.1 27.4 24.9 37.7 21.2 21.1 24.7 25.2 33.5 23.9
0.5 1.1 0.7 1.8 2.9 2.8 3.6 0.9 1.7 2.9 9.5 6.7 8.2 11.2 5.9 11.0 17.3 4.8 3.7 7.6 7.8 26.9 28.7 17.3 19.3 8.1 8.3 26.9 24.5 26.2 23.4 23.8 23.9 26.4 14.7 9.8 36.2 25.3 19.7 29.1 17.4 23.6 26.5 21.8
2.8 1.4 1.3 3.6 2.1 1.5 0.9 0.6 1.7 2.5 2.8 3.2 2.9 3.0 4.3 5.0 14.1 9.1 12.4 12.2 8.7 10.0 16.9 9.7 8.3 8.4 32.8 32.5 27.5 27.0 25.7 21.1 23.0 26.9 19.4 27.8 26.3 37.4 30.6 24.0 28.8 29.6 30.8 27.5
0.7 1.0 0.8 0.5 0.9 1.0 1.1 1.7 2.6 3.0 3.8 10.4 10.0 18.5 19.2 9.5 8.6 8.9 12.1 10.5 10.5 8.8 11.7 25.6 35.2 36.4 32.7 23.8 26.6 26.3 18.2 12.8 19.2 17.4 20.5 19.6 20.6 16.7 21.5 19.3 26.9 33.1 41.6 45.5
1.8 1.0 1.8 1.8 1.7 2.4 2.9 2.8 6.6 7.1 8.2 14.2 12.2 19.3 8.5 13.5 16.2 10.6 11.4 23.1 21.7 24.7 25.8 29.3 27.6 16.2 16.5 25.9 22.2 19.7 18.5 17.2 11.9 12.9 23.2 27.2 26.6 35.2 32.6 32.7 36.1 39.6 35.9 30.9

GFSNGP_prec_sndepth_003.txt.gz
Snowfall_Accumulation
0.0 0.0 0.0 0.0 0.0 0.0 0.0 0.0 2.2 0.1 0.0 0.0 0.0 0.0 0.0 0.0 0.0 0.0 0.0 0.0 0.0 0.0 0.0 0.0 0.0 0.0 0.0 0.0 0.0 0.0 0.0 0.0 0.0 0.0 0.0 0.0 0.0 0.0 0.0 0.0 0.0 0.0 0.0 0.0
0.3 0.0 0.0 0.1 0.0 0.0 0.0 0.0 0.0 0.0 0.0 0.0 0.0 0.0 0.0 0.0 0.0 0.0 0.0 0.0 0.0 0.0 0.0 0.0 0.0 0.0 0.0 0.0 0.0 0.0 0.0 0.0 0.0 0.0 0.0 0.0 0.0 0.0 0.0 0.0 0.0 0.0 0.0 0.0
3.4 0.0 0.5 6.4 0.2 0.0 0.0 0.0 0.0 0.4 0.0 0.0 0.0 0.0 0.0 0.0 0.0 0.0 0.0 0.0 0.0 0.0 0.0 0.0 0.0 0.0 0.0 0.0 0.0 0.0 0.0 0.0 0.0 0.0 0.0 0.0 0.0 0.0 0.0 0.0 0.0 0.0 0.0 0.0
7.2 3.7 10.0 0.1 0.0 0.0 0.0 0.0 0.0 0.0 0.0 0.0 0.0 0.0 0.0 0.0 0.0 0.0 0.0 0.0 0.0 0.0 0.0 0.0 0.0 0.0 0.0 0.0 0.0 0.0 0.0 0.0 0.0 0.0 0.0 0.0 0.0 0.0 0.0 0.0 0.0 0.0 0.0 0.0
14.4 3.0 0.1 0.0 0.0 0.0 0.1 0.1 0.0 0.0 0.0 0.0 0.0 0.0 0.0 0.0 0.0 0.0 0.0 0.0 0.0 0.0 0.0 0.0 0.0 0.0 0.0 0.0 0.0 0.0 0.0 0.0 0.0 0.0 0.0 0.0 0.0 0.0 0.0 0.0 0.0 0.0 0.0 0.0
8.1 10.0 11.6 0.1 0.0 0.0 0.0 1.2 0.0 0.0 0.0 0.0 0.0 1.3 0.0 0.0 0.0 0.0 0.0 0.0 0.0 0.0 0.0 0.0 0.0 0.0 0.0 0.0 0.0 0.0 0.0 0.0 0.0 0.0 0.0 0.0 0.0 0.0 0.0 0.0 0.1 0.4 0.1 0.0
7.8 13.3 3.3 0.0 0.0 0.0 3.8 0.4 0.1 0.0 0.0 0.0 0.0 0.2 0.0 0.0 0.0 0.0 0.0 0.0 0.0 0.0 0.0 0.0 0.0 0.0 0.0 0.0 0.0 0.0 0.0 0.0 0.0 0.0 0.0 0.0 0.0 0.0 0.0 0.1 0.3 1.5 2.9 0.9
9.9 14.4 13.3 0.0 0.0 1.8 0.5 0.0 0.0 0.0 0.0 0.0 0.0 0.0 0.0 0.0 0.0 0.0 0.0 0.0 0.0 0.0 0.0 0.0 0.0 0.0 0.0 0.0 0.0 0.0 0.0 0.0 0.0 0.0 0.0 0.0 0.0 0.0 0.0 0.2 0.8 4.5 6.1 3.4
0.4 3.4 0.0 0.0 0.0 0.0 0.0 0.0 0.0 0.0 0.0 0.0 0.0 0.0 0.0 0.0 0.0 0.0 0.0 0.0 0.0 0.0 0.0 0.0 0.0 0.0 0.0 0.0 0.0 0.0 0.0 0.0 0.0 0.0 0.0 0.0 0.0 0.2 0.6 0.1 1.5 3.8 4.2 3.6
1.0 0.0 0.0 0.0 0.0 0.0 0.0 0.0 0.0 0.0 0.0 0.0 0.0 0.0 0.0 0.0 0.0 0.0 0.0 0.0 0.0 0.0 0.0 0.0 0.0 0.0 0.0 0.0 0.0 0.0 0.0 0.0 0.0 0.0 0.0 0.0 0.0 0.2 1.0 1.4 2.3 2.1 3.8 4.3
0.1 0.0 0.0 0.0 0.0 0.0 0.0 0.0 0.0 0.0 0.0 0.0 0.0 0.0 0.0 0.0 0.0 0.0 0.0 0.0 0.0 0.0 0.0 0.0 0.0 0.0 0.0 0.0 0.0 0.0 0.0 0.1 0.0 0.3 0.2 0.3 0.1 0.7 1.7 0.8 3.1 5.6 3.1 3.7
2.0 0.0 0.0 0.0 0.0 0.0 0.0 0.0 0.0 0.0 0.0 0.0 0.0 0.0 0.0 0.0 0.0 0.0 0.0 0.0 0.0 0.0 0.0 0.0 0.0 0.0 0.0 0.0 0.0 0.1 0.1 0.2 1.3 1.8 1.4 1.2 1.3 1.5 nan nan nan nan nan 7.9
0.0 0.0 0.0 0.0 0.0 0.0 0.0 0.0 0.0 0.0 0.0 0.0 0.0 0.0 0.0 0.1 0.0 nan 0.0 0.0 0.0 0.0 0.0 0.0 0.0 0.0 0.0 0.5 1.2 2.3 1.3 1.4 1.9 1.9 1.9 1.9 2.2 2.0 3.1 4.0 nan nan nan nan
0.0 0.0 0.0 0.0 0.0 0.0 0.0 0.0 0.0 0.0 0.0 0.0 0.0 0.0 0.0 0.0 0.0 0.0 0.0 0.0 0.0 0.0 0.0 0.0 0.0 0.1 0.1 0.2 1.5 3.4 2.7 1.0 2.7 2.4 2.3 2.7 4.0 4.0 4.1 5.5 8.4 7.2 nan nan
0.0 0.0 0.0 0.0 0.0 0.0 0.0 0.0 0.0 0.0 0.0 0.0 0.0 0.0 0.0 0.0 0.0 0.0 0.0 0.0 0.2 0.2 0.1 0.1 0.1 0.2 0.2 0.3 0.6 0.6 1.3 2.7 5.5 6.9 7.0 5.8 6.0 5.9 5.3 6.1 6.7 5.9 4.9 5.7
0.0 0.0 0.0 0.0 0.0 0.0 0.0 0.0 0.0 0.0 0.0 0.0 0.0 0.3 0.0 0.0 0.0 0.0 0.2 1.0 1.2 1.5 0.9 7.4 3.3 0.7 0.4 0.2 0.4 0.7 0.8 0.3 2.9 5.2 6.2 6.3 5.1 5.8 5.1 6.2 6.2 6.7 6.2 6.0
0.1 0.1 0.1 0.0 0.0 0.0 0.0 0.0 0.0 0.0 0.0 0.5 0.4 1.3 1.3 1.9 1.8 1.4 0.5 2.1 5.6 6.3 5.2 4.2 1.7 0.2 0.4 0.3 0.4 1.1 1.4 2.0 1.1 4.0 4.3 5.0 6.5 6.9 7.0 8.3 8.2 7.8 12.8 19.8
0.0 0.0 0.0 0.0 0.0 0.0 0.1 0.1 0.2 0.4 0.4 0.4 2.8 6.6 7.5 6.7 2.4 3.0 4.0 4.5 5.8 5.6 3.2 2.7 1.8 0.7 1.1 0.3 0.9 1.5 3.3 3.6 5.1 6.6 5.9 8.8 6.4 6.2 9.0 8.4 8.4 9.4 11.9 11.9
0.0 0.0 0.0 0.0 0.0 0.2 0.2 0.3 1.3 0.9 4.5 4.2 7.7 8.0 6.2 6.3 2.9 2.5 3.2 8.8 9.7 3.7 2.2 2.3 0.0 1.3 0.9 0.9 1.3 3.1 5.6 9.3 5.7 3.9 5.6 8.0 13.1 6.8 11.2 14.4 12.4 15.7 10.3 10.5
0.0 0.0 0.0 0.0 0.0 0.8 2.1 1.6 3.3 2.0 1.2 2.6 7.8 9.2 5.6 8.1 9.1 10.2 6.3 4.6 2.7 2.2 2.5 1.4 2.0 2.4 2.2 1.2 2.8 2.8 7.0 12.0 6.6 11.4 14.8 8.3 19.1 24.4 17.6 8.5 12.9 17.1 28.0 22.2
0.2 0.3 1.5 2.1 2.0 3.4 5.1 5.9 4.5 1.8 2.1 6.4 9.7 10.7 9.7 6.3 8.5 12.4 7.7 2.8 2.1 4.6 2.5 2.0 2.5 1.9 0.7 0.8 0.9 10.0 14.8 18.4 18.4 13.2 13.0 24.2 29.2 23.1 24.3 27.8 25.9 29.9 32.9 26.8
0.2 3.2 4.8 3.6 2.6 2.0 2.6 2.2 1.9 4.9 4.9 8.4 14.1 17.1 13.1 4.9 7.6 8.0 10.4 4.1 2.3 4.1 3.3 3.7 2.2 5.1 3.6 6.8 5.4 19.1 10.0 10.8 14.1 14.5 14.9 21.8 22.6 30.9 32.2 28.7 27.1 31.0 30.4 33.0
0.2 0.5 1.6 3.4 3.8 1.0 1.7 3.0 6.5 6.8 10.2 9.2 11.3 7.8 5.8 2.3 2.5 5.4 5.9 2.2 2.6 6.3 3.6 8.5 7.1 7.5 7.7 22.9 20.5 21.9 19.5 19.6 19.1 17.0 17.9 25.0 23.1 37.1 20.9 20.8 24.4 25.0 33.2 23.6
0.2 0.5 0.4 1.3 2.3 2.1 2.8 0.5 1.1 2.1 8.2 5.5 6.8 9.7 4.7 9.1 14.8 4.0 3.2 7.2 7.5 24.2 25.0 15.2 16.8 7.8 8.2 23.5 21.6 23.1 20.6 22.0 22.9 25.2 12.7 9.7 33.9 25.0 19.5 28.8 17.2 23.4 26.2 21.6
1.9 1.0 1.1 3.1 1.7 1.3 0.6 0.4 1.2 1.9 2.1 2.1 2.0 2.0 3.1 3.8 11.8 7.1 10.7 10.7 8.3 8.8 14.7 8.8 7.6 8.2 28.4 28.2 24.3 24.5 23.3 20.4 22.4 26.5 18.9 25.3 23.3 36.5 30.3 23.7 28.5 29.2 30.4 27.2
0.6 1.1 0.8 0.4 0.7 0.8 0.9 1.4 2.1 2.4 3.0 8.4 8.0 16.0 16.4 8.2 7.4 7.7 10.6 9.5 9.1 8.2 10.3 22.3 30.5 31.8 28.5 20.6 22.9 23.0 16.5 11.5 18.7 16.8 19.8 17.8 18.1 15.2 21.3 19.1 26.5 32.6 40.9 44.7
1.6 0.9 1.8 1.5 1.4 1.9 2.3 2.3 5.3 5.8 7.0 12.4 10.6 16.6 6.9 11.6 14.5 9.3 10.6 20.3 19.1 21.5 22.3 25.6 23.9 14.6 14.3 22.5 19.2 17.5 18.2 16.4 11.9 12.7 22.9 26.8 25.9 34.7 32.2 32.3 35.6 39.0 35.4 30.5

GFSNGP_prec_sndepth_006.txt.gz
Snowfall_Accumulation
0.0 0.0 0.0 0.0 0.0 0.0 0.0 0.0 1.5 0.0 0.0 0.0 0.0 0.0 0.0 0.0 0.0 0.0 0.0 0.0 0.0 0.0 0.0 0.0 0.0 0.0 0.0 0.0 0.0 0.0 0.0 0.0 0.0 0.0 0.0 0.0 0.0 0.0 0.0 0.0 0.0 0.0 0.0 0.0
0.2 0.0 0.0 0.1 0.0 0.0 0.0 0.0 0.0 0.0 0.0 0.0 0.0 0.0 0.0 0.0 0.0 0.0 0.0 0.0 0.0 0.0 0.0 0.0 0.0 0.0 0.0 0.0 0.0 0.0 0.0 0.0 0.0 0.0 0.0 0.0 0.0 0.0 0.0 0.0 0.0 0.0 0.0 0.0
3.0 0.0 0.4 5.3 0.1 0.0 0.0 0.0 0.0 0.3 0.0 0.0 0.0 0.0 0.0 0.0 0.0 0.0 0.0 0.0 0.0 0.0 0.0 0.0 0.0 0.0 0.0 0.0 0.0 0.0 0.0 0.0 0.0 0.0 0.0 0.0 0.0 0.0 0.0 0.0 0.0 0.0 0.0 0.0
6.5 3.2 9.5 0.1 0.0 0.0 0.0 0.0 0.0 0.0 0.0 0.0 0.0 0.0 0.0 0.0 0.0 0.0 0.0 0.0 0.0 0.0 0.0 0.0 0.0 0.0 0.0 0.0 0.0 0.0 0.0 0.0 0.0 0.0 0.0 0.0 0.0 0.0 0.0 0.0 0.0 0.0 0.0 0.0
13.0 2.4 0.1 0.0 0.0 0.0 0.1 0.1 0.0 0.0 0.0 0.0 0.0 0.0 0.0 0.0 0.0 0.0 0.0 0.0 0.0 0.0 0.0 0.0 0.0 0.0 0.0 0.0 0.0 0.0 0.0 0.0 0.0 0.0 0.0 0.0 0.0 0.0 0.0 0.0 0.0 0.0 0.0 0.0
6.7 9.1 11.7 0.1 0.0 0.0 0.0 1.0 0.0 0.0 0.0 0.0 0.0 1.1 0.0 0.0 0.0 0.0 0.0 0.0 0.0 0.0 0.0 0.0 0.0 0.0 0.0 0.0 0.0 0.0 0.0 0.0 0.0 0.0 0.0 0.0 0.0 0.0 0.0 0.0 0.0 0.3 0.1 0.0
6.5 11.9 2.8 0.0 0.0 0.0 3.1 0.3 0.0 0.0 0.0 0.0 0.0 0.1 0.0 0.0 0.0 0.0 0.0 0.0 0.0 0.0 0.0 0.0 0.0 0.0 0.0 0.0 0.0 0.0 0.0 0.0 0.0 0.0 0.0 0.0 0.0 0.0 0.0 0.1 0.2 1.3 2.8 0.8
8.8 13.1 11.9 0.0 0.0 1.6 0.5 0.0 0.0 0.0 0.0 0.0 0.0 0.0 0.0 0.0 0.0 0.0 0.0 0.0 0.0 0.0 0.0 0.0 0.0 0.0 0.0 0.0 0.0 0.0 0.0 0.0 0.0 0.0 0.0 0.0 0.0 0.0 0.0 0.2 0.6 4.3 6.0 3.3
0.3 2.6 0.0 0.0 0.0 0.0 0.0 0.0 0.0 0.0 0.0 0.0 0.0 0.0 0.0 0.0 0.0 0.0 0.0 0.0 0.0 0.0 0.0 0.0 0.0 0.0 0.0 0.0 0.0 0.0 0.0 0.0 0.0 0.0 0.0 0.0 0.0 0.1 0.5 0.1 1.3 3.6 4.2 3.5
0.8 0.0 0.0 0.0 0.0 0.0 0.0 0.0 0.0 0.0 0.0 0.0 0.0 0.0 0.0 0.0 0.0 0.0 0.0 0.0 0.0 0.0 0.0 0.0 0.0 0.0 0.0 0.0 0.0 0.0 0.0 0.0 0.0 0.0 0.0 0.0 0.0 0.2 0.8 1.3 2.2 2.1 3.7 4.3
0.1 0.0 0.0 0.0 0.0 0.0 0.0 0.0 0.0 0.0 0.0 0.0 0.0 0.0 0.0 0.0 0.0 0.0 0.0 0.0 0.0 0.0 0.0 0.0 0.0 0.0 0.0 0.0 0.0 0.0 0.0 0.0 0.0 0.3 0.1 0.2 0.1 0.6 1.5 0.7 3.0 5.5 3.1 3.8
1.7 0.0 0.0 0.0 0.0 0.0 0.0 0.0 0.0 0.0 0.0 0.0 0.0 0.0 0.0 0.0 0.0 0.0 0.0 0.0 0.0 0.0 0.0 0.0 0.0 0.0 0.0 0.0 0.0 0.1 0.1 0.2 1.1 1.6 1.2 1.1 1.2 1.4 nan nan nan nan nan 8.1
0.0 0.0 0.0 0.0 0.0 0.0 0.0 0.0 0.0 0.0 0.0 0.0 0.0 0.0 0.0 0.1 0.0 nan 0.0 0.0 0.0 0.0 0.0 0.0 0.0 0.0 0.0 0.4 0.9 2.0 1.0 1.1 1.7 1.6 1.6 1.7 1.9 1.9 3.1 3.7 nan nan nan nan
0.0 0.0 0.0 0.0 0.0 0.0 0.0 0.0 0.0 0.0 0.0 0.0 0.0 0.0 0.0 0.0 0.0 0.0 0.0 0.0 0.0 0.0 0.0 0.0 0.0 0.1 0.1 0.2 1.1 3.0 2.4 1.0 2.4 2.1 2.0 2.4 3.7 3.9 3.9 5.4 8.3 7.1 nan nan
0.0 0.0 0.0 0.0 0.0 0.0 0.0 0.0 0.0 0.0 0.0 0.0 0.0 0.0 0.0 0.0 0.0 0.0 0.0 0.0 0.1 0.2 0.1 0.1 0.1 0.1 0.1 0.2 0.5 0.5 1.0 2.3 5.0 6.4 6.5 5.4 5.6 5.6 5.1 6.1 6.6 5.9 4.9 5.7
0.0 0.0 0.0 0.0 0.0 0.0 0.0 0.0 0.0 0.0 0.0 0.0 0.0 0.2 0.0 0.0 0.0 0.0 0.1 0.8 1.0 1.2 0.6 7.4 3.2 0.5 0.3 0.2 0.3 0.4 0.6 0.2 2.6 4.6 5.7 5.8 4.7 5.6 5.1 6.1 6.2 6.8 6.3 6.1
0.0 0.1 0.0 0.0 0.0 0.0 0.0 0.0 0.0 0.0 0.0 0.4 0.3 1.0 1.0 1.5 1.4 1.1 0.4 1.8 5.1 5.8 4.8 3.8 1.5 0.2 0.3 0.2 0.3 0.9 1.2 1.8 1.0 3.5 4.0 4.7 6.2 6.7 7.0 8.2 8.2 7.9 12.8 19.9
0.0 0.0 0.0 0.0 0.0 0.0 0.0 0.1 0.2 0.3 0.3 0.3 2.4 6.1 7.0 6.3 2.1 2.6 3.6 4.1 5.5 5.3 2.8 2.4 1.6 0.5 1.0 0.3 0.8 1.3 2.9 3.2 4.6 6.2 5.6 8.7 6.3 6.1 8.9 8.3 8.4 9.4 12.0 12.0
0.0 0.0 0.0 0.0 0.0 0.1 0.1 0.2 1.0 0.6 3.8 3.8 7.1 7.3 5.8 5.9 2.6 2.2 2.9 8.7 9.5 3.3 1.8 2.0 0.0 1.2 0.7 0.8 1.2 2.8 5.2 9.1 5.5 3.6 5.5 7.9 13.0 6.6 11.2 14.3 12.3 15.8 10.4 10.6
0.0 0.0 0.0 0.0 0.0 0.5 1.5 1.2 2.7 1.6 0.9 2.3 7.2 8.4 4.8 7.0 8.5 9.9 6.0 4.3 2.3 1.9 2.0 1.1 1.6 2.1 2.1 1.1 2.7 2.5 6.4 11.9 6.4 11.3 14.6 8.2 18.9 24.1 17.5 8.5 12.8 17.0 27.9 22.2
0.1 0.2 1.0 1.5 1.5 2.8 4.3 5.0 4.0 1.5 1.7 5.8 9.1 10.0 9.2 6.0 8.0 11.2 6.9 2.4 1.9 3.9 2.1 1.9 2.2 1.6 0.6 0.7 0.9 8.9 14.5 18.3 18.3 13.1 12.9 23.9 28.9 22.9 24.1 27.6 25.7 29.7 32.6 26.8
0.1 2.3 4.1 3.0 2.0 1.6 2.1 1.8 1.5 4.3 4.4 7.7 13.1 16.3 12.0 4.1 6.7 7.0 9.5 3.7 2.0 4.0 3.0 3.4 2.1 5.0 3.6 6.8 5.0 17.7 9.8 10.8 14.0 14.4 14.8 21.6 22.4 30.6 31.9 28.4 26.9 30.8 30.2 32.8
0.1 0.3 1.1 2.7 3.1 0.7 1.4 2.6 5.7 6.0 9.2 8.3 10.2 6.8 5.0 2.0 2.1 4.9 5.6 1.7 2.3 6.1 3.4 7.8 6.8 7.2 7.6 21.1 19.0 20.5 18.8 19.4 19.0 16.9 17.8 24.8 23.0 36.6 20.8 20.7 24.2 24.8 32.9 23.5
0.1 0.3 0.3 0.9 1.9 2.1 2.7 0.5 0.9 1.8 7.5 4.8 6.0 9.1 4.2 8.0 13.1 3.4 2.8 7.1 7.3 22.2 22.6 13.7 15.5 7.6 8.1 22.5 20.3 22.1 19.9 21.9 22.8 25.0 12.6 9.7 33.6 24.8 19.4 28.5 17.1 23.2 26.0 21.4
1.3 0.6 0.8 2.7 1.7 1.3 0.6 0.3 1.0 1.6 1.8 1.7 1.7 1.7 2.6 3.1 10.7 6.2 9.9 9.6 8.0 8.1 13.4 8.5 7.4 8.1 28.1 28.0 23.7 23.4 23.0 20.2 22.2 26.3 18.7 25.1 23.1 36.1 30.0 23.5 28.3 29.0 30.1 26.9
0.4 1.0 0.7 0.4 0.7 0.8 0.8 1.2 1.8 2.0 2.5 7.3 7.1 14.5 14.8 7.1 6.6 6.9 9.4 8.9 8.1 7.9 9.2 20.3 29.9 31.5 28.3 20.4 22.6 21.9 16.3 11.4 18.6 16.7 19.6 17.7 18.0 15.1 21.1 19.0 26.3 32.3 40.4 44.1
1.4 0.8 1.7 1.5 1.2 1.6 1.9 1.9 4.5 5.1 6.2 11.1 9.5 14.9 6.1 10.1 13.0 8.5 9.9 17.8 17.5 19.6 19.8 23.0 21.7 14.5 14.2 22.4 18.7 17.1 18.1 16.3 11.8 12.6 22.8 26.6 25.6 34.3 31.8 31.9 35.2 38.5 35.0 30.3

GFSNGP_prec_sndepth_012.txt.gz
Snowfall_Accumulation
0.0 0.0 0.0 0.0 0.0 0.0 0.0 0.0 1.4 0.0 0.0 0.0 0.0 0.0 0.0 0.0 0.0 0.0 0.0 0.0 0.0 0.0 0.0 0.0 0.0 0.0 0.0 0.0 0.0 0.0 0.0 0.0 0.0 0.0 0.0 0.0 0.0 0.0 0.0 0.0 0.0 0.0 0.0 0.0
0.2 0.0 0.0 0.1 0.0 0.0 0.0 0.0 0.0 0.0 0.0 0.0 0.0 0.0 0.0 0.0 0.0 0.0 0.0 0.0 0.0 0.0 0.0 0.0 0.0 0.0 0.0 0.0 0.0 0.0 0.0 0.0 0.0 0.0 0.0 0.0 0.0 0.0 0.0 0.0 0.0 0.0 0.0 0.0
2.7 0.0 0.4 5.1 0.1 0.0 0.0 0.0 0.0 0.3 0.0 0.0 0.0 0.0 0.0 0.0 0.0 0.0 0.0 0.0 0.0 0.0 0.0 0.0 0.0 0.0 0.0 0.0 0.0 0.0 0.0 0.0 0.0 0.0 0.0 0.0 0.0 0.0 0.0 0.0 0.0 0.0 0.0 0.0
5.9 3.2 9.9 0.1 0.0 0.0 0.0 0.0 0.0 0.0 0.0 0.0 0.0 0.0 0.0 0.0 0.0 0.0 0.0 0.0 0.0 0.0 0.0 0.0 0.0 0.0 0.0 0.0 0.0 0.0 0.0 0.0 0.0 0.0 0.0 0.0 0.0 0.0 0.0 0.0 0.0 0.0 0.0 0.0
12.6 2.3 0.1 0.0 0.0 0.0 0.0 0.1 0.0 0.0 0.0 0.0 0.0 0.0 0.0 0.0 0.0 0.0 0.0 0.0 0.0 0.0 0.0 0.0 0.0 0.0 0.0 0.0 0.0 0.0 0.0 0.0 0.0 0.0 0.0 0.0 0.0 0.0 0.0 0.0 0.0 0.0 0.0 0.0
6.4 9.1 11.7 0.1 0.0 0.0 0.0 0.9 0.0 0.0 0.0 0.0 0.0 0.9 0.0 0.0 0.0 0.0 0.0 0.0 0.0 0.0 0.0 0.0 0.0 0.0 0.0 0.0 0.0 0.0 0.0 0.0 0.0 0.0 0.0 0.0 0.0 0.0 0.0 0.0 0.0 0.3 0.1 0.0
6.2 11.6 2.7 0.0 0.0 0.0 3.4 0.3 0.0 0.0 0.0 0.0 0.0 0.1 0.0 0.0 0.0 0.0 0.0 0.0 0.0 0.0 0.0 0.0 0.0 0.0 0.0 0.0 0.0 0.0 0.0 0.0 0.0 0.0 0.0 0.0 0.0 0.0 0.0 0.1 0.2 1.3 2.8 0.8
8.5 12.9 11.9 0.0 0.0 1.5 0.5 0.0 0.0 0.0 0.0 0.0 0.0 0.0 0.0 0.0 0.0 0.0 0.0 0.0 0.0 0.0 0.0 0.0 0.0 0.0 0.0 0.0 0.0 0.0 0.0 0.0 0.0 0.0 0.0 0.0 0.0 0.0 0.0 0.2 0.6 4.3 6.0 3.3
0.3 2.5 0.0 0.0 0.0 0.0 0.0 0.0 0.0 0.0 0.0 0.0 0.0 0.0 0.0 0.0 0.0 0.0 0.0 0.0 0.0 0.0 0.0 0.0 0.0 0.0 0.0 0.0 0.0 0.0 0.0 0.0 0.0 0.0 0.0 0.0 0.0 0.1 0.5 0.1 1.3 3.6 4.3 3.5
0.7 0.0 0.0 0.0 0.0 0.0 0.0 0.0 0.0 0.0 0.0 0.0 0.0 0.0 0.0 0.0 0.0 0.0 0.0 0.0 0.0 0.0 0.0 0.0 0.0 0.0 0.0 0.0 0.0 0.0 0.0 0.0 0.0 0.0 0.0 0.0 0.0 0.2 0.8 1.3 2.2 2.1 3.7 4.3
0.1 0.0 0.0 0.0 0.0 0.0 0.0 0.0 0.0 0.0 0.0 0.0 0.0 0.0 0.0 0.0 0.0 0.0 0.0 0.0 0.0 0.0 0.0 0.0 0.0 0.0 0.0 0.0 0.0 0.0 0.0 0.0 0.0 0.3 0.1 0.2 0.1 0.6 1.5 0.7 3.0 5.5 3.1 4.2
1.3 0.0 0.0 0.0 0.0 0.0 0.0 0.0 0.0 0.0 0.0 0.0 0.0 0.0 0.0 0.0 0.0 0.0 0.0 0.0 0.0 0.0 0.0 0.0 0.0 0.0 0.0 0.0 0.0 0.1 0.1 0.2 1.1 1.6 1.2 1.1 1.2 1.4 nan nan nan nan nan 8.7
0.0 0.0 0.0 0.0 0.0 0.0 0.0 0.0 0.0 0.0 0.0 0.0 0.0 0.0 0.0 0.0 0.0 nan 0.0 0.0 0.0 0.0 0.0 0.0 0.0 0.0 0.0 0.4 0.9 2.0 1.0 1.1 1.7 1.6 1.6 1.7 1.9 1.9 3.1 3.7 nan nan nan nan
0.0 0.0 0.0 0.0 0.0 0.0 0.0 0.0 0.0 0.0 0.0 0.0 0.0 0.0 0.0 0.0 0.0 0.0 0.0 0.0 0.0 0.0 0.0 0.0 0.0 0.1 0.1 0.2 1.1 3.0 2.4 1.0 2.4 2.1 2.0 2.4 3.7 3.9 3.9 5.4 8.3 7.1 nan nan
0.0 0.0 0.0 0.0 0.0 0.0 0.0 0.0 0.0 0.0 0.0 0.0 0.0 0.0 0.0 0.0 0.0 0.0 0.0 0.0 0.1 0.2 0.1 0.1 0.1 0.1 0.1 0.2 0.5 0.5 1.0 2.4 5.0 6.4 6.5 5.4 5.6 5.6 5.1 6.1 6.6 5.9 4.9 5.6
0.0 0.0 0.0 0.0 0.0 0.0 0.0 0.0 0.0 0.0 0.0 0.0 0.0 0.3 0.0 0.0 0.0 0.0 0.1 0.8 1.0 1.2 0.6 7.4 3.2 0.5 0.3 0.2 0.3 0.4 0.6 0.2 2.6 4.6 5.7 5.8 4.7 5.6 5.1 6.2 6.2 6.8 6.4 6.3
0.0 0.0 0.0 0.0 0.0 0.0 0.0 0.0 0.0 0.0 0.0 0.4 0.3 1.0 1.0 1.6 1.5 1.2 0.4 1.8 5.2 5.8 4.8 3.8 1.5 0.2 0.3 0.2 0.3 0.9 1.2 1.8 1.0 3.5 4.0 4.7 6.2 6.7 7.0 8.2 8.2 8.0 13.0 20.0
0.0 0.0 0.0 0.0 0.0 0.0 0.0 0.1 0.2 0.3 0.3 0.3 2.4 6.1 7.0 6.3 2.1 2.6 3.6 4.1 5.5 5.3 2.8 2.4 1.6 0.5 1.0 0.3 0.8 1.3 2.9 3.2 4.6 6.2 5.6 8.7 6.3 6.1 8.9 8.3 8.4 9.5 12.2 12.1
0.0 0.0 0.0 0.0 0.0 0.1 0.1 0.2 1.0 0.7 3.8 3.8 7.1 7.3 5.8 5.9 2.6 2.2 2.9 8.6 9.5 3.3 1.8 2.0 0.0 1.2 0.7 0.8 1.2 2.8 5.2 9.1 5.5 3.7 5.5 7.9 12.9 6.6 11.1 14.3 12.3 15.7 10.6 10.8
0.0 0.0 0.0 0.0 0.0 0.5 1.6 1.2 2.6 1.6 1.0 2.3 7.2 8.4 4.8 7.0 8.5 9.9 6.0 4.3 2.4 1.9 2.0 1.1 1.7 2.2 2.2 1.1 2.7 2.6 6.4 12.0 6.5 11.4 14.6 8.2 18.8 23.9 17.4 8.5 12.8 16.9 27.6 22.2
0.1 0.2 0.9 1.5 1.5 2.8 4.2 4.9 4.0 1.5 1.8 5.9 9.1 10.1 9.2 6.0 7.9 11.1 6.9 2.4 1.9 3.9 2.1 1.9 2.2 1.7 0.7 1.0 1.0 9.0 14.6 18.2 18.3 13.1 12.9 23.7 28.6 22.7 23.9 27.3 25.5 29.3 32.2 26.5
0.1 2.3 4.1 3.0 2.1 1.6 2.2 1.8 1.5 4.4 4.4 7.7 13.1 16.2 11.9 4.1 6.6 7.0 9.5 3.7 2.0 4.0 3.0 3.4 2.1 5.0 3.6 6.9 5.0 17.7 9.8 10.8 14.0 14.3 14.8 21.4 22.3 30.3 31.5 28.1 26.7 30.4 29.9 32.3
0.1 0.2 1.1 2.7 3.1 0.8 1.4 2.5 5.4 5.9 9.3 8.4 10.3 6.8 5.0 2.1 2.1 4.9 5.5 1.7 2.3 6.1 3.4 7.8 6.9 7.2 7.6 20.9 18.8 20.3 18.7 19.4 19.0 16.9 17.7 24.6 22.8 36.2 20.7 20.5 24.0 24.6 32.5 23.3
0.1 0.3 0.2 0.9 1.9 2.0 2.7 0.5 1.0 1.9 7.5 5.0 6.2 9.1 4.2 8.0 13.0 3.4 2.8 7.1 7.3 22.0 22.4 13.7 15.4 7.7 8.1 22.2 20.1 22.0 19.8 21.8 22.7 24.9 12.6 9.7 33.2 24.6 19.3 28.2 17.0 23.1 25.8 21.3
1.2 0.6 0.8 2.6 1.7 1.2 0.6 0.4 1.2 1.8 2.2 2.0 1.8 1.7 2.6 3.1 10.6 6.2 9.8 9.5 8.0 8.1 13.4 8.5 7.5 8.1 27.7 27.6 23.5 23.2 22.9 20.1 22.1 26.2 18.8 25.0 23.0 35.7 29.7 23.3 28.0 28.7 29.8 26.7
0.4 0.9 0.7 0.4 0.6 0.7 0.8 1.3 2.0 2.4 2.9 7.3 7.0 14.1 14.6 7.0 6.6 6.9 9.4 8.9 8.1 7.9 9.2 20.2 29.5 31.0 27.9 20.3 22.4 21.8 16.3 11.5 18.5 16.6 19.5 17.7 18.0 15.0 20.9 18.9 26.0 31.8 39.7 43.4
1.4 0.8 1.7 1.5 1.2 1.7 2.2 2.3 4.9 5.3 6.4 11.1 9.4 14.8 6.1 10.1 12.9 8.5 9.8 17.7 17.4 19.4 19.7 22.8 21.5 14.4 14.1 22.2 18.6 17.1 18.0 16.3 11.8 12.7 22.7 26.3 25.4 33.9 31.5 31.6 34.8 38.0 34.5 29.9

GFSNGP_prec_sndepth_015.txt.gz
Snowfall_Accumulation
0.0 0.0 0.0 0.0 0.0 0.0 0.0 0.0 1.4 0.0 0.0 0.0 0.0 0.0 0.0 0.0 0.0 0.0 0.0 0.0 0.0 0.0 0.0 0.0 0.0 0.0 0.0 0.0 0.0 0.0 0.0 0.0 0.0 0.0 0.0 0.0 0.0 0.0 0.0 0.0 0.0 0.0 0.0 0.0
0.2 0.0 0.0 0.1 0.0 0.0 0.0 0.0 0.0 0.0 0.0 0.0 0.0 0.0 0.0 0.0 0.0 0.0 0.0 0.0 0.0 0.0 0.0 0.0 0.0 0.0 0.0 0.0 0.0 0.0 0.0 0.0 0.0 0.0 0.0 0.0 0.0 0.0 0.0 0.0 0.0 0.0 0.0 0.0
2.7 0.0 0.4 5.1 0.1 0.0 0.0 0.0 0.0 0.3 0.0 0.0 0.0 0.0 0.0 0.0 0.0 0.0 0.0 0.0 0.0 0.0 0.0 0.0 0.0 0.0 0.0 0.0 0.0 0.0 0.0 0.0 0.0 0.0 0.0 0.0 0.0 0.0 0.0 0.0 0.0 0.0 0.0 0.0
5.8 3.2 10.0 0.1 0.0 0.0 0.0 0.0 0.0 0.0 0.0 0.0 0.0 0.0 0.0 0.0 0.0 0.0 0.0 0.0 0.0 0.0 0.0 0.0 0.0 0.0 0.0 0.0 0.0 0.0 0.0 0.0 0.0 0.0 0.0 0.0 0.0 0.0 0.0 0.0 0.0 0.0 0.0 0.0
12.6 2.3 0.1 0.0 0.0 0.0 0.1 0.1 0.0 0.0 0.0 0.0 0.0 0.0 0.0 0.0 0.0 0.0 0.0 0.0 0.0 0.0 0.0 0.0 0.0 0.0 0.0 0.0 0.0 0.0 0.0 0.0 0.0 0.0 0.0 0.0 0.0 0.0 0.0 0.0 0.0 0.0 0.0 0.0
6.3 9.1 11.7 0.1 0.0 0.0 0.0 0.9 0.0 0.0 0.0 0.0 0.0 0.8 0.0 0.0 0.0 0.0 0.0 0.0 0.0 0.0 0.0 0.0 0.0 0.0 0.0 0.0 0.0 0.0 0.0 0.0 0.0 0.0 0.0 0.0 0.0 0.0 0.0 0.0 0.0 0.3 0.1 0.0
6.2 11.6 2.7 0.0 0.0 0.0 3.4 0.3 0.0 0.0 0.0 0.0 0.0 0.1 0.0 0.0 0.0 0.0 0.0 0.0 0.0 0.0 0.0 0.0 0.0 0.0 0.0 0.0 0.0 0.0 0.0 0.0 0.0 0.0 0.0 0.0 0.0 0.0 0.0 0.1 0.2 1.3 2.8 0.8
8.5 12.9 11.9 0.0 0.0 1.5 0.4 0.0 0.0 0.0 0.0 0.0 0.0 0.0 0.0 0.0 0.0 0.0 0.0 0.0 0.0 0.0 0.0 0.0 0.0 0.0 0.0 0.0 0.0 0.0 0.0 0.0 0.0 0.0 0.0 0.0 0.0 0.0 0.0 0.2 0.6 4.3 6.0 3.3
0.3 2.5 0.0 0.0 0.0 0.0 0.0 0.0 0.0 0.0 0.0 0.0 0.0 0.0 0.0 0.0 0.0 0.0 0.0 0.0 0.0 0.0 0.0 0.0 0.0 0.0 0.0 0.0 0.0 0.0 0.0 0.0 0.0 0.0 0.0 0.0 0.0 0.1 0.5 0.1 1.3 3.6 4.3 3.5
0.6 0.0 0.0 0.0 0.0 0.0 0.0 0.0 0.0 0.0 0.0 0.0 0.0 0.0 0.0 0.0 0.0 0.0 0.0 0.0 0.0 0.0 0.0 0.0 0.0 0.0 0.0 0.0 0.0 0.0 0.0 0.0 0.0 0.0 0.0 0.0 0.0 0.2 0.8 1.3 2.2 2.1 3.7 4.3
0.1 0.0 0.0 0.0 0.0 0.0 0.0 0.0 0.0 0.0 0.0 0.0 0.0 0.0 0.0 0.0 0.0 0.0 0.0 0.0 0.0 0.0 0.0 0.0 0.0 0.0 0.0 0.0 0.0 0.0 0.0 0.0 0.0 0.3 0.1 0.2 0.1 0.6 1.5 0.7 3.0 5.5 3.1 4.4
1.2 0.0 0.0 0.0 0.0 0.0 0.0 0.0 0.0 0.0 0.0 0.0 0.0 0.0 0.0 0.0 0.0 0.0 0.0 0.0 0.0 0.0 0.0 0.0 0.0 0.0 0.0 0.0 0.0 0.1 0.1 0.2 1.1 1.6 1.2 1.1 1.2 1.4 nan nan nan nan nan 8.7
0.0 0.0 0.0 0.0 0.0 0.0 0.0 0.0 0.0 0.0 0.0 0.0 0.0 0.0 0.0 0.1 0.0 nan 0.0 0.0 0.0 0.0 0.0 0.0 0.0 0.0 0.0 0.4 0.9 2.0 1.0 1.1 1.7 1.6 1.6 1.7 1.9 1.9 3.1 3.7 nan nan nan nan
0.0 0.0 0.0 0.0 0.0 0.0 0.0 0.0 0.0 0.0 0.0 0.0 0.0 0.0 0.0 0.0 0.0 0.0 0.0 0.0 0.0 0.0 0.0 0.0 0.0 0.1 0.1 0.2 1.1 3.0 2.4 1.0 2.4 2.1 2.0 2.4 3.8 3.9 3.9 5.5 8.3 7.1 nan nan
0.0 0.0 0.0 0.0 0.0 0.0 0.0 0.0 0.0 0.0 0.0 0.0 0.0 0.0 0.0 0.0 0.0 0.0 0.0 0.0 0.1 0.2 0.1 0.1 0.1 0.1 0.1 0.2 0.5 0.5 1.0 2.4 5.0 6.4 6.5 5.4 5.7 5.6 5.1 6.1 6.7 5.9 4.9 5.6
0.0 0.0 0.0 0.0 0.0 0.0 0.0 0.0 0.0 0.0 0.0 0.0 0.0 0.3 0.0 0.0 0.0 0.0 0.1 0.8 1.0 1.2 0.6 7.4 3.2 0.5 0.3 0.2 0.3 0.4 0.6 0.2 2.6 4.7 5.7 5.9 4.7 5.6 5.1 6.2 6.2 6.8 6.4 6.3
0.0 0.0 0.1 0.0 0.0 0.0 0.0 0.0 0.0 0.0 0.0 0.4 0.3 1.0 1.0 1.6 1.5 1.2 0.4 1.9 5.2 5.8 4.8 3.8 1.5 0.2 0.3 0.2 0.3 0.9 1.2 1.8 1.1 3.5 4.0 4.7 6.2 6.7 7.0 8.3 8.2 8.0 13.1 20.0
0.0 0.0 0.0 0.0 0.0 0.0 0.0 0.1 0.2 0.3 0.3 0.3 2.4 6.1 7.0 6.3 2.2 2.7 3.6 4.1 5.5 5.3 2.8 2.4 1.6 0.5 1.0 0.3 0.8 1.3 2.9 3.2 4.7 6.2 5.6 8.7 6.3 6.1 8.9 8.4 8.4 9.5 12.2 12.1
0.0 0.0 0.0 0.0 0.0 0.1 0.1 0.2 1.0 0.7 3.8 3.8 7.1 7.3 5.8 6.0 2.7 2.2 2.9 8.6 9.5 3.3 1.8 2.0 0.0 1.2 0.7 0.8 1.2 2.9 5.3 9.1 5.5 3.7 5.5 8.0 12.9 6.6 11.1 14.3 12.3 15.7 10.5 10.7
0.0 0.0 0.0 0.0 0.0 0.5 1.6 1.2 2.6 1.6 1.0 2.3 7.2 8.4 4.9 7.1 8.5 9.9 6.0 4.3 2.4 1.9 2.0 1.1 1.7 2.2 2.2 1.1 2.7 2.6 6.5 12.1 6.6 11.4 14.6 8.2 18.7 23.8 17.3 8.5 12.8 16.9 27.4 22.1
0.1 0.2 0.9 1.5 1.5 2.8 4.2 4.9 4.0 1.5 1.8 5.8 9.1 10.1 9.4 6.1 8.0 11.1 6.9 2.4 1.9 3.9 2.1 1.9 2.2 1.7 0.7 1.0 1.0 9.0 14.7 18.2 18.2 13.1 12.9 23.6 28.5 22.6 23.8 27.2 25.4 29.2 32.0 26.4
0.1 2.3 4.1 3.0 2.1 1.6 2.2 1.8 1.5 4.4 4.4 7.5 12.9 16.4 12.2 4.3 6.7 7.0 9.4 3.7 2.0 4.0 3.0 3.4 2.1 5.0 3.6 6.9 5.0 17.6 9.8 10.8 14.0 14.4 14.8 21.4 22.2 30.1 31.4 28.0 26.6 30.3 29.8 32.2
0.1 0.2 1.1 2.7 3.1 0.7 1.4 2.5 5.3 5.7 9.0 8.2 10.4 7.1 5.4 2.2 2.2 4.9 5.5 1.7 2.3 6.1 3.4 7.8 6.9 7.2 7.6 20.8 18.8 20.3 18.7 19.3 19.0 16.9 17.7 24.6 22.8 36.0 20.6 20.5 23.9 24.5 32.4 23.2
0.1 0.3 0.2 0.9 1.9 2.0 2.7 0.5 1.0 1.9 7.3 5.0 6.4 9.5 4.5 8.1 13.0 3.4 2.8 7.1 7.3 22.0 22.3 13.6 15.3 7.7 8.1 22.1 20.1 21.9 19.7 21.8 22.6 24.8 12.7 9.7 33.1 24.5 19.2 28.1 17.0 23.0 25.7 21.2
1.2 0.6 0.8 2.6 1.7 1.2 0.6 0.4 1.2 1.8 2.2 2.3 2.3 1.9 2.7 3.1 10.6 6.2 9.8 9.5 8.1 8.1 13.3 8.5 7.5 8.1 27.6 27.4 23.4 23.1 22.8 20.1 22.1 26.1 18.7 25.0 23.0 35.5 29.6 23.3 27.9 28.6 29.7 26.6
0.4 0.9 0.7 0.4 0.6 0.7 0.8 1.4 2.1 2.4 3.1 7.7 7.2 14.2 14.6 7.0 6.6 6.9 9.4 8.9 8.1 7.9 9.2 20.1 29.3 30.8 27.7 20.2 22.4 21.8 16.3 11.5 18.5 16.6 19.5 17.7 18.0 15.0 20.9 18.8 25.9 31.6 39.5 43.0
1.4 0.8 1.7 1.5 1.2 1.7 2.2 2.4 5.2 5.5 6.5 11.4 9.4 14.8 6.1 10.1 12.9 8.5 9.8 17.6 17.3 19.4 19.7 22.7 21.4 14.3 14.1 22.2 18.6 17.1 18.0 16.3 11.9 12.7 22.6 26.2 25.3 33.7 31.3 31.4 34.6 37.7 34.3 29.8

GFSNGP_prec_sndepth_018.txt.gz
Snowfall_Accumulation
0.0 0.0 0.0 0.0 0.0 0.0 0.0 0.0 1.4 0.0 0.0 0.0 0.0 0.0 0.0 0.0 0.0 0.0 0.0 0.0 0.0 0.0 0.0 0.0 0.0 0.0 0.0 0.0 0.0 0.0 0.0 0.0 0.0 0.0 0.0 0.0 0.0 0.0 0.0 0.0 0.0 0.0 0.0 0.0
0.2 0.0 0.0 0.1 0.0 0.0 0.0 0.0 0.0 0.0 0.0 0.0 0.0 0.0 0.0 0.0 0.0 0.0 0.0 0.0 0.0 0.0 0.0 0.0 0.0 0.0 0.0 0.0 0.0 0.0 0.0 0.0 0.0 0.0 0.0 0.0 0.0 0.0 0.0 0.0 0.0 0.0 0.0 0.0
2.7 0.0 0.4 5.1 0.1 0.0 0.0 0.0 0.0 0.3 0.0 0.0 0.0 0.0 0.0 0.0 0.0 0.0 0.0 0.0 0.0 0.0 0.0 0.0 0.0 0.0 0.0 0.0 0.0 0.0 0.0 0.0 0.0 0.0 0.0 0.0 0.0 0.0 0.0 0.0 0.0 0.0 0.0 0.0
5.8 3.2 10.0 0.1 0.0 0.0 0.0 0.0 0.0 0.0 0.0 0.0 0.0 0.0 0.0 0.0 0.0 0.0 0.0 0.0 0.0 0.0 0.0 0.0 0.0 0.0 0.0 0.0 0.0 0.0 0.0 0.0 0.0 0.0 0.0 0.0 0.0 0.0 0.0 0.0 0.0 0.0 0.0 0.0
12.6 2.3 0.1 0.0 0.0 0.0 0.1 0.1 0.0 0.0 0.0 0.0 0.0 0.0 0.0 0.0 0.0 0.0 0.0 0.0 0.0 0.0 0.0 0.0 0.0 0.0 0.0 0.0 0.0 0.0 0.0 0.0 0.0 0.0 0.0 0.0 0.0 0.0 0.0 0.0 0.0 0.0 0.0 0.0
6.3 9.1 11.7 0.1 0.0 0.0 0.0 0.9 0.0 0.0 0.0 0.0 0.0 0.8 0.0 0.0 0.0 0.0 0.0 0.0 0.0 0.0 0.0 0.0 0.0 0.0 0.0 0.0 0.0 0.0 0.0 0.0 0.0 0.0 0.0 0.0 0.0 0.0 0.0 0.0 0.0 0.3 0.1 0.0
6.2 11.6 2.7 0.0 0.0 0.0 3.4 0.3 0.0 0.0 0.0 0.0 0.0 0.1 0.0 0.0 0.0 0.0 0.0 0.0 0.0 0.0 0.0 0.0 0.0 0.0 0.0 0.0 0.0 0.0 0.0 0.0 0.0 0.0 0.0 0.0 0.0 0.0 0.0 0.1 0.2 1.3 2.8 0.8
8.4 12.9 12.0 0.0 0.0 1.5 0.4 0.0 0.0 0.0 0.0 0.0 0.0 0.0 0.0 0.0 0.0 0.0 0.0 0.0 0.0 0.0 0.0 0.0 0.0 0.0 0.0 0.0 0.0 0.0 0.0 0.0 0.0 0.0 0.0 0.0 0.0 0.0 0.0 0.2 0.6 4.4 6.0 3.3
0.3 2.5 0.0 0.0 0.0 0.0 0.0 0.0 0.0 0.0 0.0 0.0 0.0 0.0 0.0 0.0 0.0 0.0 0.0 0.0 0.0 0.0 0.0 0.0 0.0 0.0 0.0 0.0 0.0 0.0 0.0 0.0 0.0 0.0 0.0 0.0 0.0 0.1 0.5 0.1 1.3 3.6 4.3 3.5
0.6 0.0 0.0 0.0 0.0 0.0 0.0 0.0 0.0 0.0 0.0 0.0 0.0 0.0 0.0 0.0 0.0 0.0 0.0 0.0 0.0 0.0 0.0 0.0 0.0 0.0 0.0 0.0 0.0 0.0 0.0 0.0 0.0 0.0 0.0 0.0 0.0 0.2 0.8 1.3 2.2 2.1 3.7 4.3
0.1 0.0 0.0 0.0 0.0 0.0 0.0 0.0 0.0 0.0 0.0 0.0 0.0 0.0 0.0 0.0 0.0 0.0 0.0 0.0 0.0 0.0 0.0 0.0 0.0 0.0 0.0 0.0 0.0 0.0 0.0 0.0 0.0 0.3 0.1 0.2 0.1 0.6 1.5 0.7 3.0 5.5 3.1 4.5
1.1 0.0 0.0 0.0 0.0 0.0 0.0 0.0 0.0 0.0 0.0 0.0 0.0 0.0 0.0 0.0 0.0 0.0 0.0 0.0 0.0 0.0 0.0 0.0 0.0 0.0 0.0 0.0 0.0 0.1 0.1 0.2 1.1 1.6 1.2 1.1 1.2 1.4 nan nan nan nan nan 8.8
0.0 0.0 0.0 0.0 0.0 0.0 0.0 0.0 0.0 0.0 0.0 0.0 0.0 0.0 0.0 0.1 0.0 nan 0.0 0.0 0.0 0.0 0.0 0.0 0.0 0.0 0.0 0.4 0.9 2.0 1.0 1.1 1.7 1.6 1.6 1.7 1.9 1.9 3.1 3.7 nan nan nan nan
0.0 0.0 0.0 0.0 0.0 0.0 0.0 0.0 0.0 0.0 0.0 0.0 0.0 0.0 0.0 0.0 0.0 0.0 0.0 0.0 0.0 0.0 0.0 0.0 0.0 0.1 0.1 0.2 1.1 3.0 2.4 1.0 2.4 2.1 2.0 2.4 3.8 4.0 3.9 5.5 8.4 7.1 nan nan
0.0 0.0 0.0 0.0 0.0 0.0 0.0 0.0 0.0 0.0 0.0 0.0 0.0 0.0 0.0 0.0 0.0 0.0 0.0 0.0 0.1 0.2 0.1 0.1 0.1 0.1 0.1 0.2 0.5 0.5 1.0 2.4 5.0 6.4 6.5 5.4 5.7 5.6 5.1 6.1 6.7 5.9 4.9 5.6
0.0 0.0 0.0 0.0 0.0 0.0 0.0 0.0 0.0 0.0 0.0 0.0 0.0 0.3 0.0 0.0 0.0 0.0 0.1 0.8 1.0 1.2 0.6 7.4 3.2 0.5 0.3 0.2 0.3 0.5 0.6 0.2 2.6 4.7 5.7 5.9 4.8 5.6 5.1 6.2 6.2 6.8 6.4 6.4
0.0 0.1 0.1 0.0 0.0 0.0 0.0 0.0 0.0 0.0 0.0 0.4 0.3 1.0 1.0 1.6 1.5 1.2 0.4 1.9 5.2 5.8 4.8 3.8 1.5 0.2 0.3 0.2 0.3 1.0 1.2 1.8 1.1 3.5 4.0 4.8 6.3 6.7 7.0 8.3 8.2 8.0 13.0 20.0
0.0 0.0 0.0 0.0 0.0 0.0 0.0 0.1 0.2 0.3 0.3 0.3 2.5 6.1 7.0 6.3 2.2 2.7 3.6 4.1 5.5 5.4 2.8 2.4 1.6 0.6 1.0 0.3 0.9 1.3 3.0 3.3 4.7 6.3 5.6 8.7 6.3 6.1 9.0 8.4 8.5 9.5 12.2 12.1
0.0 0.0 0.0 0.0 0.0 0.1 0.1 0.2 1.0 0.7 3.8 3.8 7.1 7.3 5.8 6.0 2.7 2.3 3.0 8.8 9.7 3.3 1.8 2.0 0.0 1.2 0.8 0.8 1.2 2.9 5.3 9.2 5.6 3.7 5.5 8.0 12.9 6.6 11.1 14.3 12.3 15.7 10.6 10.7
0.0 0.0 0.0 0.0 0.0 0.5 1.6 1.2 2.6 1.6 1.0 2.3 7.2 8.4 4.9 7.1 8.5 10.1 6.2 4.4 2.4 1.9 2.0 1.1 1.7 2.2 2.2 1.2 2.7 2.6 6.6 12.1 6.6 11.4 14.6 8.2 18.7 23.8 17.3 8.5 12.9 16.9 27.3 22.1
0.1 0.2 0.9 1.5 1.5 2.8 4.2 4.9 4.0 1.5 1.8 5.8 9.1 10.0 9.3 6.1 8.2 11.4 7.2 2.6 1.9 3.9 2.1 1.9 2.2 1.7 0.7 1.0 1.0 9.0 14.6 18.1 18.2 13.1 12.9 23.6 28.4 22.5 23.7 27.1 25.3 29.1 31.8 26.3
0.1 2.3 4.1 3.0 2.1 1.6 2.2 1.8 1.5 4.4 4.4 7.5 12.5 15.9 12.3 4.5 7.1 7.4 9.6 3.7 2.0 4.0 3.0 3.4 2.1 5.0 3.6 6.9 5.0 17.6 9.9 10.8 14.0 14.4 14.9 21.4 22.2 30.0 31.2 27.9 26.5 30.2 29.6 32.0
0.1 0.2 1.1 2.7 3.1 0.7 1.4 2.5 5.3 5.7 9.0 8.2 10.3 7.1 5.5 2.5 2.6 5.0 5.5 1.7 2.3 6.1 3.3 7.8 6.9 7.2 7.6 20.7 18.7 20.2 18.7 19.3 19.0 16.9 17.7 24.6 22.7 35.8 20.6 20.4 23.8 24.4 32.2 23.1
0.1 0.3 0.2 0.9 1.9 2.0 2.7 0.5 1.0 1.9 7.3 5.0 6.4 9.5 4.6 8.2 13.0 3.4 2.8 7.1 7.3 21.9 22.2 13.6 15.3 7.7 8.1 22.1 20.0 21.8 19.7 21.7 22.6 24.7 12.7 9.8 32.9 24.5 19.2 28.1 17.0 23.0 25.6 21.2
1.3 0.6 0.8 2.6 1.7 1.2 0.6 0.4 1.2 1.8 2.3 2.3 2.3 2.0 2.7 3.1 10.6 6.2 9.8 9.5 8.0 8.1 13.3 8.5 7.5 8.1 27.4 27.3 23.3 23.1 22.7 20.1 22.1 26.0 18.7 25.0 23.0 35.4 29.5 23.2 27.8 28.5 29.5 26.5
0.4 0.9 0.7 0.4 0.6 0.7 0.8 1.4 2.2 2.4 3.2 7.8 7.3 14.2 14.6 7.0 6.6 6.9 9.4 8.9 8.1 7.9 9.2 20.0 29.2 30.5 27.6 20.2 22.3 21.7 16.3 11.5 18.5 16.7 19.5 17.7 18.0 15.0 20.8 18.8 25.8 31.5 39.2 42.7
1.4 0.8 1.7 1.5 1.2 1.7 2.2 2.5 5.3 5.6 6.6 11.5 9.5 14.8 6.1 10.1 12.9 8.5 9.8 17.6 17.3 19.3 19.6 22.6 21.4 14.3 14.1 22.1 18.5 17.0 17.9 16.3 11.9 12.8 22.6 26.2 25.2 33.5 31.2 31.2 34.4 37.5 34.1 29.6